This is the latest recevied weather packets stored in our database for station/object OK0EK-12. If no packets are shown the sender has not sent any weather packets the latest 10 day(s).
| Time | Temp. | Humidity | Pressure | Rain* | Wind** | Luminosity | Snow |
|---|---|---|---|---|---|---|---|
| 1777678289 | 5.56° C | 76% | 1105.1 hPa | - | - | - | - |
| 1777677690 | 5.56° C | 75% | 1105.1 hPa | - | - | - | - |
| 1777677092 | 6.11° C | 74% | 1105.2 hPa | - | - | - | - |
| 1777676493 | 6.11° C | 73% | 1105.1 hPa | - | - | - | - |
| 1777675896 | 6.67° C | 74% | 1105.2 hPa | - | - | - | - |
| 1777675297 | 6.11° C | 74% | 1105.1 hPa | - | - | - | - |
| 1777674699 | 6.11° C | 73% | 1105 hPa | - | - | - | - |
| 1777674101 | 6.11° C | 73% | 1105 hPa | - | - | - | - |
| 1777673501 | 6.67° C | 72% | 1105.1 hPa | - | - | - | - |
| 1777672910 | 7.22° C | 72% | 1105.1 hPa | - | - | - | - |
| 1777672312 | 6.67° C | 73% | 1105.2 hPa | - | - | - | - |
| 1777671706 | 6.67° C | 72% | 1105.2 hPa | - | - | - | - |
| 1777671107 | 6.67° C | 72% | 1105.1 hPa | - | - | - | - |
| 1777670509 | 7.22° C | 71% | 1105 hPa | - | - | - | - |
| 1777669910 | 7.22° C | 70% | 1104.9 hPa | - | - | - | - |
| 1777669311 | 7.78° C | 69% | 1105 hPa | - | - | - | - |
| 1777668712 | 7.78° C | 69% | 1105.1 hPa | - | - | - | - |
| 1777668121 | 7.78° C | 68% | 1105 hPa | - | - | - | - |
| 1777667515 | 8.33° C | 68% | 1104.9 hPa | - | - | - | - |
| 1777666917 | 8.33° C | 68% | 1104.9 hPa | - | - | - | - |
| 1777666318 | 8.89° C | 65% | 1104.9 hPa | - | - | - | - |
| 1777665719 | 8.89° C | 63% | 1104.8 hPa | - | - | - | - |
| 1777665121 | 10° C | 62% | 1104.7 hPa | - | - | - | - |
| 1777664522 | 9.44° C | 62% | 1104.7 hPa | - | - | - | - |
| 1777663924 | 9.44° C | 64% | 1104.6 hPa | - | - | - | - |
* Rain since midnight (hover to see other rain measurements)
** Current wind speed in m/s (hover to see current wind gust speed)